Location: Asheville, NC
(35.6000°N, 82.5500°W)
Time: 05:35:32
(UTC-04:00)

Tiangong 1 - Pass Details

Date: 12 October 2017
Orbit: 294 x 321 km, 42.8° (Epoch: 17 October)

Event Time Altitude Azimuth Distance (km) Brightness Sun altitude
Rises 19:41:53 0° 299° (WNW) 2,039 5.8 -9.6°
Reaches altitude 10° 19:44:13 10° 318° (NW) 1,203 4.1 -10.1°
Maximum altitude 19:46:14 19° 8° (N) 829 2.7 -10.5°
Enters shadow 19:47:43 13° 47° (NE) 1,037 2.8 -10.8°
